Location: Omaha
(41.2590°N, 95.9380°W)
Time: 13:39:10
(UTC-05:00)

ISS - Pass Details

Date: 11 October 2017
Orbit: 401 x 408 km, 51.6° (Epoch: 19 October)

Event Time Altitude Azimuth Distance (km) Brightness Sun altitude
Rises 19:22:43 0° 310° (NW) 2,325 0.8 -7.2°
Reaches altitude 10° 19:25:05 10° 326° (NW) 1,465 -0.6 -7.6°
Maximum altitude 19:27:47 23° 21° (NNE) 912 -2.3 -8.1°
Enters shadow 19:30:15 11° 74° (ENE) 1,382 -1.8 -8.6°
